TimeEDT,TemperatureF,Dew PointF,Humidity,Sea Level PressureIn,VisibilityMPH,Wind Direction,Wind SpeedMPH,Gust SpeedMPH,PrecipitationIn,Events,Conditions,WindDirDegrees,DateUTC
12:53 AM,57.9,54.0,87,29.94,10.0,Calm,Calm,-,N/A,,Mostly Cloudy,0,2013-07-23 04:53:00
1:53 AM,57.9,55.9,93,29.92,10.0,Calm,Calm,-,N/A,,Overcast,0,2013-07-23 05:53:00
2:00 AM,60.8,55.4,82,29.92,10.0,Calm,Calm,-,N/A,,Mostly Cloudy,0,2013-07-23 06:00:00
2:18 AM,60.8,55.4,82,29.91,10.0,Calm,Calm,-,N/A,,Overcast,0,2013-07-23 06:18:00
2:53 AM,61.0,55.9,83,29.89,10.0,Calm,Calm,-,N/A,,Overcast,0,2013-07-23 06:53:00
3:53 AM,61.0,59.0,93,29.87,6.0,ESE,4.6,-,N/A,,Overcast,120,2013-07-23 07:53:00
3:56 AM,60.8,59.0,94,29.88,2.0,ESE,3.5,-,N/A,,Overcast,120,2013-07-23 07:56:00
4:39 AM,60.8,60.8,100,29.87,1.8,NNE,3.5,-,0.00,Rain,Light Rain,30,2013-07-23 08:39:00
4:53 AM,60.1,60.1,100,29.86,2.0,North,3.5,-,0.00,Rain,Light Rain,10,2013-07-23 08:53:00
5:03 AM,60.8,60.8,100,29.86,1.8,Calm,Calm,-,0.00,Rain,Light Rain,0,2013-07-23 09:03:00
5:50 AM,60.8,60.8,100,29.85,0.5,Calm,Calm,-,0.00,Fog-Rain,Light Rain,0,2013-07-23 09:50:00
5:53 AM,61.0,60.1,97,29.85,0.5,Calm,Calm,-,0.00,Fog-Rain,Light Rain,0,2013-07-23 09:53:00
6:14 AM,60.8,60.8,100,29.84,0.2,Calm,Calm,-,0.00,Fog-Rain,Light Rain,0,2013-07-23 10:14:00
6:53 AM,61.0,61.0,100,29.82,0.5,NE,5.8,-,0.01,Fog-Rain,Light Rain,40,2013-07-23 10:53:00
7:53 AM,62.1,62.1,100,29.81,1.5,NE,5.8,-,0.05,Rain,Rain,40,2013-07-23 11:53:00
8:24 AM,62.6,62.6,100,29.80,2.5,ENE,6.9,-,0.07,Rain,Light Rain,60,2013-07-23 12:24:00
8:40 AM,62.6,62.6,100,29.79,1.5,ENE,6.9,-,0.16,Rain,Heavy Rain,60,2013-07-23 12:40:00
8:53 AM,62.1,62.1,100,29.77,2.5,ENE,8.1,-,0.18,Rain,Light Rain,60,2013-07-23 12:53:00
9:16 AM,62.6,62.6,100,29.75,3.0,NE,9.2,-,0.02,Rain,Light Rain,40,2013-07-23 13:16:00
9:53 AM,63.0,62.1,97,29.73,5.0,East,11.5,-,0.02,Rain,Light Rain,90,2013-07-23 13:53:00
10:13 AM,64.4,62.6,94,29.73,5.0,East,9.2,-,0.00,Rain,Light Rain,100,2013-07-23 14:13:00
10:53 AM,64.9,63.0,93,29.70,8.0,East,9.2,-,0.01,Rain,Light Rain,100,2013-07-23 14:53:00
11:53 AM,64.9,63.0,93,29.68,4.0,East,8.1,-,0.01,Rain,Light Rain,100,2013-07-23 15:53:00
12:53 PM,66.0,64.0,93,29.64,8.0,East,5.8,-,0.02,,Overcast,100,2013-07-23 16:53:00
1:53 PM,66.9,64.9,93,29.60,6.0,SE,6.9,-,0.02,Rain,Rain,130,2013-07-23 17:53:00
2:18 PM,66.2,64.4,94,29.61,1.5,Calm,Calm,-,0.08,Rain,Heavy Rain,0,2013-07-23 18:18:00
2:27 PM,66.2,64.4,94,29.61,0.8,Calm,Calm,-,0.21,Rain,Heavy Rain,0,2013-07-23 18:27:00
2:48 PM,66.2,64.4,94,29.60,1.2,WSW,3.5,-,0.41,Rain,Heavy Rain,240,2013-07-23 18:48:00
2:53 PM,66.0,64.9,96,29.60,1.5,WSW,3.5,-,0.41,Rain,Light Rain,250,2013-07-23 18:53:00
3:53 PM,66.9,64.9,93,29.58,4.0,SSW,4.6,-,0.07,,Overcast,200,2013-07-23 19:53:00
4:53 PM,66.9,64.9,93,29.56,4.0,Calm,Calm,-,0.07,,Overcast,0,2013-07-23 20:53:00
5:53 PM,68.0,66.0,93,29.55,5.0,WNW,3.5,-,0.00,,Overcast,300,2013-07-23 21:53:00
6:53 PM,69.1,66.0,90,29.54,5.0,Calm,Calm,-,0.00,,Mostly Cloudy,0,2013-07-23 22:53:00
7:53 PM,68.0,66.0,93,29.54,10.0,Calm,Calm,-,N/A,,Mostly Cloudy,0,2013-07-23 23:53:00
8:04 PM,66.2,66.2,100,29.54,10.0,Calm,Calm,-,N/A,,Mostly Cloudy,0,2013-07-24 00:04:00
8:53 PM,66.9,66.0,97,29.55,10.0,NW,4.6,-,N/A,,Mostly Cloudy,310,2013-07-24 00:53:00
9:53 PM,64.9,64.0,97,29.54,10.0,Calm,Calm,-,N/A,,Scattered Clouds,0,2013-07-24 01:53:00
10:53 PM,64.9,64.9,100,29.55,10.0,Calm,Calm,-,N/A,,Scattered Clouds,0,2013-07-24 02:53:00
11:53 PM,64.0,64.0,100,29.55,10.0,WSW,3.5,-,N/A,,Scattered Clouds,240,2013-07-24 03:53:00